Time,TemperatureF,DewpointF,PressureIn,WindDirection,WindDirectionDegrees,WindSpeedMPH,WindSpeedGustMPH,Humidity,HourlyPrecipIn,Conditions,Clouds,dailyrainin,SoftwareType,DateUTC
2013-12-23 00:01:00,66.0,63.9,30.05,East,99,1.0,4.0,93,0.00,,BKN100,0.00,VWS V14.01,2013-12-23 05:01:00,
2013-12-23 00:11:00,66.2,64.4,30.04,ESE,103,3.0,6.0,94,0.00,,BKN100,0.00,VWS V14.01,2013-12-23 05:11:00,
2013-12-23 00:16:00,66.4,64.3,30.04,SE,133,1.0,5.0,93,0.00,,BKN100,0.00,VWS V14.01,2013-12-23 05:16:00,
2013-12-23 00:21:00,66.4,64.6,30.04,SSE,153,2.0,6.0,94,0.00,,BKN100,0.00,VWS V14.01,2013-12-23 05:21:00,
2013-12-23 00:26:00,66.5,64.4,30.04,ESE,122,2.0,7.0,93,0.00,,BKN100,0.00,VWS V14.01,2013-12-23 05:26:00,
2013-12-23 00:31:00,66.5,64.7,30.03,SE,133,2.0,5.0,94,0.00,,BKN100,0.00,VWS V14.01,2013-12-23 05:31:00,
2013-12-23 00:41:00,66.5,64.7,30.03,SE,145,1.0,6.0,94,0.00,,BKN100,0.00,VWS V14.01,2013-12-23 05:41:00,
2013-12-23 00:46:00,66.7,64.9,30.03,ESE,117,0.0,8.0,94,0.00,,BKN100,0.00,VWS V14.01,2013-12-23 05:46:00,
2013-12-23 00:51:00,66.7,64.9,30.03,SE,134,0.0,3.0,94,0.00,,BKN100,0.00,VWS V14.01,2013-12-23 05:51:00,
2013-12-23 00:56:00,66.8,65.0,30.02,South,180,1.0,5.0,94,0.00,,-RA,0.00,VWS V14.01,2013-12-23 05:56:00,
2013-12-23 01:01:00,66.9,65.1,30.03,SE,139,0.0,3.0,94,0.00,,-RA,0.00,VWS V14.01,2013-12-23 06:01:00,
2013-12-23 01:06:00,67.0,65.2,30.03,SSW,193,2.0,5.0,94,0.00,,-RA,0.00,VWS V14.01,2013-12-23 06:06:00,
2013-12-23 01:11:00,67.1,65.3,30.03,ENE,72,3.0,5.0,94,0.00,,-RA,0.00,VWS V14.01,2013-12-23 06:11:00,
2013-12-23 01:16:00,67.2,65.4,30.03,SW,223,1.0,4.0,94,0.00,,-RA,0.00,VWS V14.01,2013-12-23 06:16:00,
2013-12-23 01:21:00,67.3,65.5,30.03,SW,225,3.0,7.0,94,0.00,,-RA,0.00,VWS V14.01,2013-12-23 06:21:00,
2013-12-23 01:26:00,67.5,65.7,30.04,SSE,154,3.0,6.0,94,0.04,,-RA,0.04,VWS V14.01,2013-12-23 06:26:00,
2013-12-23 01:31:00,67.5,65.7,30.05,SW,222,2.0,8.0,94,0.16,,-RA,0.16,VWS V14.01,2013-12-23 06:31:00,
2013-12-23 01:36:00,67.3,65.8,30.05,SE,137,2.0,4.0,95,0.26,,-RA,0.26,VWS V14.01,2013-12-23 06:36:00,
2013-12-23 01:41:00,67.2,65.7,30.06,South,184,3.0,3.0,95,0.27,,-RA,0.27,VWS V14.01,2013-12-23 06:41:00,
2013-12-23 01:46:00,67.1,65.6,30.05,WSW,242,0.0,4.0,95,0.29,,OVC030,0.29,VWS V14.01,2013-12-23 06:46:00,
2013-12-23 01:51:00,67.0,65.8,30.05,SSW,193,3.0,5.0,96,0.29,,OVC030,0.29,VWS V14.01,2013-12-23 06:51:00,
2013-12-23 01:56:00,67.1,65.9,30.06,WNW,283,4.0,5.0,96,0.29,,OVC045,0.29,VWS V14.01,2013-12-23 06:56:00,
2013-12-23 02:01:00,67.0,65.8,30.06,West,274,1.0,5.0,96,0.29,,OVC045,0.29,VWS V14.01,2013-12-23 07:01:00,
2013-12-23 02:06:00,67.1,65.9,30.05,South,178,2.0,6.0,96,0.29,,OVC045,0.29,VWS V14.01,2013-12-23 07:06:00,
2013-12-23 02:11:00,67.1,65.9,30.05,SSW,195,0.0,5.0,96,0.29,,OVC045,0.29,VWS V14.01,2013-12-23 07:11:00,
2013-12-23 02:16:00,67.1,65.9,30.05,SE,141,2.0,2.0,96,0.29,,OVC045,0.29,VWS V14.01,2013-12-23 07:16:00,
2013-12-23 02:21:00,67.0,65.8,30.05,SE,128,0.0,2.0,96,0.29,,OVC045,0.29,VWS V14.01,2013-12-23 07:21:00,
2013-12-23 02:26:00,67.0,65.8,30.05,South,172,1.0,3.0,96,0.29,,OVC045,0.29,VWS V14.01,2013-12-23 07:26:00,
2013-12-23 02:31:00,66.9,65.7,30.04,East,98,0.0,1.0,96,0.25,,OVC045,0.29,VWS V14.01,2013-12-23 07:31:00,
2013-12-23 02:36:00,66.9,65.7,30.04,SE,127,0.0,2.0,96,0.14,,OVC045,0.30,VWS V14.01,2013-12-23 07:36:00,
2013-12-23 02:41:00,66.8,65.6,30.04,SSW,210,1.0,3.0,96,0.05,,OVC045,0.31,VWS V14.01,2013-12-23 07:41:00,
2013-12-23 02:46:00,66.8,65.6,30.04,SSE,154,2.0,2.0,96,0.05,,OVC045,0.32,VWS V14.01,2013-12-23 07:46:00,
2013-12-23 02:51:00,66.7,65.5,30.04,SSE,152,1.0,2.0,96,0.05,,OVC045,0.34,VWS V14.01,2013-12-23 07:51:00,
2013-12-23 02:56:00,66.6,65.4,30.05,SSE,168,0.0,3.0,96,0.06,,RA,0.35,VWS V14.01,2013-12-23 07:56:00,
2013-12-23 03:01:00,66.6,65.4,30.03,South,184,0.0,2.0,96,0.06,,RA,0.35,VWS V14.01,2013-12-23 08:01:00,
2013-12-23 03:06:00,66.5,65.3,30.04,SW,222,0.0,2.0,96,0.06,,RA,0.35,VWS V14.01,2013-12-23 08:06:00,
2013-12-23 03:11:00,66.4,65.5,30.05,West,266,0.0,3.0,97,0.07,,RA,0.36,VWS V14.01,2013-12-23 08:11:00,
2013-12-23 03:16:00,66.4,65.2,30.04,SSE,165,3.0,3.0,96,0.09,,RA,0.38,VWS V14.01,2013-12-23 08:16:00,
2013-12-23 03:21:00,66.3,65.1,30.04,SE,144,0.0,4.0,96,0.12,,-RA,0.41,VWS V14.01,2013-12-23 08:21:00,
2013-12-23 03:26:00,66.3,65.4,30.04,SW,233,0.0,3.0,97,0.16,,-RA,0.45,VWS V14.01,2013-12-23 08:26:00,
2013-12-23 03:31:00,66.2,65.3,30.05,West,271,2.0,3.0,97,0.22,,-RA,0.51,VWS V14.01,2013-12-23 08:31:00,
2013-12-23 03:36:00,66.1,65.2,30.04,WSW,256,0.0,3.0,97,0.25,,-RA,0.54,VWS V14.01,2013-12-23 08:36:00,
2013-12-23 03:41:00,66.1,65.2,30.05,West,265,2.0,3.0,97,0.28,,-RA,0.58,VWS V14.01,2013-12-23 08:41:00,
2013-12-23 03:46:00,66.0,65.1,30.06,West,264,1.0,4.0,97,0.33,,-RA,0.64,VWS V14.01,2013-12-23 08:46:00,
2013-12-23 03:51:00,65.9,65.0,30.05,West,271,0.0,6.0,97,0.35,,-RA,0.67,VWS V14.01,2013-12-23 08:51:00,
2013-12-23 03:56:00,65.8,64.9,30.05,WSW,248,3.0,5.0,97,0.35,,-RA,0.69,VWS V14.01,2013-12-23 08:56:00,
2013-12-23 04:01:00,65.7,64.5,30.05,SW,226,0.0,5.0,96,0.36,,-RA,0.71,VWS V14.01,2013-12-23 09:01:00,
2013-12-23 04:06:00,65.6,64.4,30.04,WSW,238,1.0,1.0,96,0.37,,-RA,0.72,VWS V14.01,2013-12-23 09:06:00,
2013-12-23 04:11:00,65.5,64.3,30.04,SSE,165,0.0,3.0,96,0.37,,-RA,0.72,VWS V14.01,2013-12-23 09:11:00,
2013-12-23 04:16:00,65.5,64.3,30.05,SSW,193,1.0,2.0,96,0.36,,-RA,0.72,VWS V14.01,2013-12-23 09:16:00,
2013-12-23 04:21:00,65.5,64.3,30.04,SSE,156,1.0,3.0,96,0.35,,-RA,0.73,VWS V14.01,2013-12-23 09:21:00,
2013-12-23 04:26:00,65.4,64.2,30.04,WSW,237,1.0,3.0,96,0.32,,-RA,0.73,VWS V14.01,2013-12-23 09:26:00,
2013-12-23 04:31:00,65.4,64.2,30.04,WSW,238,0.0,3.0,96,0.28,,-RA,0.73,VWS V14.01,2013-12-23 09:31:00,
2013-12-23 04:36:00,65.4,63.9,30.04,SSE,152,0.0,3.0,95,0.22,,-RA,0.73,VWS V14.01,2013-12-23 09:36:00,
2013-12-23 04:41:00,65.4,63.9,30.03,SE,139,0.0,0.0,95,0.22,,-RA,0.76,VWS V14.01,2013-12-23 09:41:00,
2013-12-23 04:46:00,65.3,63.8,30.03,NNW,340,0.0,3.0,95,0.18,,-RA,0.76,VWS V14.01,2013-12-23 09:46:00,
2013-12-23 04:51:00,65.3,63.8,30.03,SSE,149,0.0,1.0,95,0.12,,-RA,0.76,VWS V14.01,2013-12-23 09:51:00,
2013-12-23 04:56:00,65.2,64.0,30.03,SSE,153,0.0,1.0,96,0.09,,-RA,0.76,VWS V14.01,2013-12-23 09:56:00,
2013-12-23 05:01:00,65.2,64.0,30.03,WSW,238,0.0,1.0,96,0.07,,-RA,0.76,VWS V14.01,2013-12-23 10:01:00,
2013-12-23 05:06:00,65.1,63.9,30.03,SW,233,0.0,1.0,96,0.08,,-RA,0.79,VWS V14.01,2013-12-23 10:06:00,
2013-12-23 05:11:00,65.0,63.8,30.02,ESE,108,0.0,1.0,96,0.07,,-RA,0.79,VWS V14.01,2013-12-23 10:11:00,
2013-12-23 05:16:00,65.0,63.8,30.02,ESE,108,0.0,1.0,96,0.07,,-RA,0.79,VWS V14.01,2013-12-23 10:16:00,
2013-12-23 05:21:00,64.9,63.7,30.02,ESE,108,0.0,1.0,96,0.07,,-RA,0.79,VWS V14.01,2013-12-23 10:21:00,
2013-12-23 05:26:00,64.8,63.6,30.02,ESE,108,0.0,1.0,96,0.06,,-RA,0.79,VWS V14.01,2013-12-23 10:26:00,
2013-12-23 05:31:00,64.7,63.5,30.01,ESE,116,0.0,1.0,96,0.06,,-RA,0.79,VWS V14.01,2013-12-23 10:31:00,
2013-12-23 05:36:00,64.6,63.7,30.01,ESE,115,0.0,1.0,97,0.06,,-RA,0.79,VWS V14.01,2013-12-23 10:36:00,
2013-12-23 05:41:00,64.6,63.7,30.01,WSW,246,0.0,1.0,97,0.06,,-RA,0.79,VWS V14.01,2013-12-23 10:41:00,
2013-12-23 05:46:00,64.6,63.7,30.01,ESE,106,1.0,2.0,97,0.03,,-RA,0.79,VWS V14.01,2013-12-23 10:46:00,
2013-12-23 05:51:00,64.5,63.6,30.01,ESE,106,0.0,1.0,97,0.03,,-RA,0.79,VWS V14.01,2013-12-23 10:51:00,
2013-12-23 05:56:00,64.4,63.5,30.01,SE,132,0.0,1.0,97,0.03,,OVC022,0.79,VWS V14.01,2013-12-23 10:56:00,
2013-12-23 06:01:00,64.4,63.5,30.01,SE,132,0.0,0.0,97,0.03,,OVC022,0.79,VWS V14.01,2013-12-23 11:01:00,
2013-12-23 06:06:00,64.4,63.5,30.01,SE,132,0.0,1.0,97,0.03,,OVC022,0.79,VWS V14.01,2013-12-23 11:06:00,
2013-12-23 06:11:00,64.4,63.5,30.01,SE,132,0.0,1.0,97,0.00,,OVC022,0.79,VWS V14.01,2013-12-23 11:11:00,
2013-12-23 06:16:00,64.4,63.5,30.01,SE,132,0.0,0.0,97,0.00,,OVC022,0.79,VWS V14.01,2013-12-23 11:16:00,
2013-12-23 06:21:00,64.4,63.5,30.01,SE,132,0.0,0.0,97,0.00,,OVC022,0.79,VWS V14.01,2013-12-23 11:21:00,
2013-12-23 06:26:00,64.4,63.5,30.01,SE,132,0.0,0.0,97,0.00,,OVC009,0.79,VWS V14.01,2013-12-23 11:26:00,
2013-12-23 06:31:00,64.5,63.9,30.01,SE,132,0.0,1.0,98,0.00,,OVC009,0.79,VWS V14.01,2013-12-23 11:31:00,
2013-12-23 06:41:00,64.5,63.9,30.02,SE,132,0.0,0.0,98,0.00,,OVC009,0.79,VWS V14.01,2013-12-23 11:41:00,
2013-12-23 06:46:00,64.6,64.0,30.02,SW,221,0.0,1.0,98,0.00,,OVC015,0.79,VWS V14.01,2013-12-23 11:46:00,
2013-12-23 06:51:00,64.6,64.0,30.02,SW,220,0.0,0.0,98,0.00,,OVC015,0.79,VWS V14.01,2013-12-23 11:51:00,
2013-12-23 06:56:00,64.6,64.0,30.02,SW,220,0.0,0.0,98,0.00,,OVC013,0.79,VWS V14.01,2013-12-23 11:56:00,
2013-12-23 07:01:00,64.5,63.6,30.02,SW,220,0.0,0.0,97,0.00,,OVC013,0.79,VWS V14.01,2013-12-23 12:01:00,
2013-12-23 07:06:00,64.3,63.4,30.02,SW,219,0.0,1.0,97,0.00,,OVC013,0.79,VWS V14.01,2013-12-23 12:06:00,
2013-12-23 07:11:00,64.5,63.9,30.01,ESE,110,0.0,1.0,98,0.00,,OVC013,0.79,VWS V14.01,2013-12-23 12:11:00,
2013-12-23 07:16:00,64.7,64.1,30.01,SE,127,0.0,1.0,98,0.00,,OVC013,0.79,VWS V14.01,2013-12-23 12:16:00,
2013-12-23 07:21:00,64.9,64.3,30.01,ESE,108,3.0,3.0,98,0.00,,OVC013,0.79,VWS V14.01,2013-12-23 12:21:00,
2013-12-23 07:26:00,65.4,64.8,30.01,SE,125,2.0,3.0,98,0.00,,OVC013,0.79,VWS V14.01,2013-12-23 12:26:00,
2013-12-23 07:31:00,65.7,65.1,30.01,SE,139,1.0,3.0,98,0.00,,OVC013,0.79,VWS V14.01,2013-12-23 12:31:00,
2013-12-23 07:36:00,65.9,65.3,30.02,SE,141,1.0,2.0,98,0.00,,OVC013,0.79,VWS V14.01,2013-12-23 12:36:00,
2013-12-23 07:41:00,66.1,65.5,30.02,SW,223,2.0,2.0,98,0.00,,OVC013,0.79,VWS V14.01,2013-12-23 12:41:00,
2013-12-23 07:46:00,66.4,65.8,30.02,SW,217,0.0,2.0,98,0.00,, +RA,0.79,VWS V14.01,2013-12-23 12:46:00,
2013-12-23 07:51:00,66.5,65.9,30.02,SE,139,1.0,2.0,98,0.00,, +RA,0.79,VWS V14.01,2013-12-23 12:51:00,
2013-12-23 07:56:00,66.7,66.1,30.02,South,187,0.0,1.0,98,0.00,, +RA,0.79,VWS V14.01,2013-12-23 12:56:00,
2013-12-23 08:01:00,67.0,66.4,30.02,SSW,211,1.0,3.0,98,0.00,, +RA,0.79,VWS V14.01,2013-12-23 13:01:00,
2013-12-23 08:06:00,67.3,66.7,30.02,South,169,2.0,4.0,98,0.00,, +RA,0.79,VWS V14.01,2013-12-23 13:06:00,
2013-12-23 08:11:00,67.5,66.9,30.03,South,171,1.0,5.0,98,0.01,, +RA,0.80,VWS V14.01,2013-12-23 13:11:00,
2013-12-23 08:16:00,67.5,66.9,30.04,West,281,0.0,5.0,98,0.01,, +RA,0.80,VWS V14.01,2013-12-23 13:16:00,
2013-12-23 08:21:00,67.1,66.2,30.05,WSW,248,6.0,10.0,97,0.03,, +RA,0.82,VWS V14.01,2013-12-23 13:21:00,
2013-12-23 08:26:00,67.0,65.8,30.05,WSW,238,7.0,11.0,96,0.09,,RA,0.88,VWS V14.01,2013-12-23 13:26:00,
2013-12-23 08:31:00,66.7,65.5,30.04,West,276,1.0,7.0,96,0.17,,RA,0.96,VWS V14.01,2013-12-23 13:31:00,
2013-12-23 08:36:00,66.3,64.8,30.04,SW,229,1.0,7.0,95,0.18,,RA,0.97,VWS V14.01,2013-12-23 13:36:00,
2013-12-23 08:41:00,66.1,64.6,30.05,SW,220,1.0,4.0,95,0.22,,RA,1.01,VWS V14.01,2013-12-23 13:41:00,
2013-12-23 08:46:00,66.0,64.5,30.05,ESE,105,1.0,3.0,95,0.29,,RA,1.08,VWS V14.01,2013-12-23 13:46:00,
2013-12-23 08:51:00,65.8,64.6,30.05,SW,214,1.0,3.0,96,0.30,,RA,1.09,VWS V14.01,2013-12-23 13:51:00,
2013-12-23 08:56:00,65.6,64.4,30.05,West,266,1.0,3.0,96,0.32,,OVC075,1.11,VWS V14.01,2013-12-23 13:56:00,
2013-12-23 09:01:00,65.5,64.3,30.05,SSE,147,1.0,2.0,96,0.33,,OVC075,1.12,VWS V14.01,2013-12-23 14:01:00,
2013-12-23 09:06:00,65.5,64.3,30.04,West,265,1.0,2.0,96,0.33,,OVC075,1.12,VWS V14.01,2013-12-23 14:06:00,
2013-12-23 09:11:00,65.5,64.3,30.04,SSW,199,0.0,4.0,96,0.33,,OVC075,1.12,VWS V14.01,2013-12-23 14:11:00,
2013-12-23 09:16:00,65.5,64.3,30.04,South,173,1.0,2.0,96,0.32,,OVC075,1.12,VWS V14.01,2013-12-23 14:16:00,
2013-12-23 09:21:00,65.5,64.3,30.05,SSW,209,0.0,2.0,96,0.32,,OVC075,1.12,VWS V14.01,2013-12-23 14:21:00,
2013-12-23 09:26:00,65.5,64.3,30.05,SSW,207,0.0,1.0,96,0.30,,OVC075,1.12,VWS V14.01,2013-12-23 14:26:00,
2013-12-23 09:31:00,65.5,64.3,30.05,WSW,246,0.0,4.0,96,0.24,,OVC075,1.12,VWS V14.01,2013-12-23 14:31:00,
2013-12-23 09:36:00,65.6,64.4,30.05,West,272,1.0,4.0,96,0.16,,OVC075,1.12,VWS V14.01,2013-12-23 14:36:00,
2013-12-23 09:41:00,65.7,64.5,30.05,SW,231,3.0,4.0,96,0.15,,OVC075,1.12,VWS V14.01,2013-12-23 14:41:00,
2013-12-23 09:46:00,65.7,64.5,30.05,West,260,0.0,4.0,96,0.11,,OVC075,1.12,VWS V14.01,2013-12-23 14:46:00,
2013-12-23 09:51:00,65.7,64.2,30.05,WSW,255,2.0,8.0,95,0.04,,OVC075,1.12,VWS V14.01,2013-12-23 14:51:00,
2013-12-23 09:56:00,65.8,64.3,30.06,West,271,0.0,6.0,95,0.03,,OVC075,1.12,VWS V14.01,2013-12-23 14:56:00,
2013-12-23 10:01:00,65.8,64.3,30.05,ESE,109,2.0,3.0,95,0.01,,OVC075,1.12,VWS V14.01,2013-12-23 15:01:00,
2013-12-23 10:06:00,65.9,64.4,30.04,SSE,151,1.0,3.0,95,0.00,,OVC075,1.12,VWS V14.01,2013-12-23 15:06:00,
2013-12-23 10:11:00,65.9,64.4,30.04,WSW,239,0.0,2.0,95,0.00,,OVC075,1.12,VWS V14.01,2013-12-23 15:11:00,
2013-12-23 10:16:00,66.0,64.2,30.04,SW,223,2.0,3.0,94,0.00,,OVC075,1.12,VWS V14.01,2013-12-23 15:16:00,
2013-12-23 10:21:00,66.0,64.2,30.04,South,177,1.0,5.0,94,0.00,,OVC075,1.12,VWS V14.01,2013-12-23 15:21:00,
2013-12-23 10:26:00,66.2,64.1,30.05,WSW,248,2.0,3.0,93,0.00,,OVC075,1.12,VWS V14.01,2013-12-23 15:26:00,
2013-12-23 10:31:00,66.3,64.2,30.05,ESE,109,1.0,6.0,93,0.00,,OVC075,1.12,VWS V14.01,2013-12-23 15:31:00,
2013-12-23 10:36:00,66.4,64.3,30.06,West,266,1.0,4.0,93,0.00,,OVC075,1.12,VWS V14.01,2013-12-23 15:36:00,
2013-12-23 10:41:00,66.4,64.3,30.05,SE,145,3.0,6.0,93,0.00,,OVC075,1.12,VWS V14.01,2013-12-23 15:41:00,
2013-12-23 10:46:00,66.5,64.4,30.05,West,281,1.0,5.0,93,0.00,,OVC075,1.12,VWS V14.01,2013-12-23 15:46:00,
2013-12-23 10:51:00,66.5,64.4,30.05,WSW,255,3.0,11.0,93,0.00,,OVC075,1.12,VWS V14.01,2013-12-23 15:51:00,
2013-12-23 10:56:00,66.6,64.5,30.05,SE,130,3.0,6.0,93,0.00,,-RA,1.12,VWS V14.01,2013-12-23 15:56:00,
2013-12-23 11:01:00,66.7,64.6,30.05,SSE,165,1.0,5.0,93,0.00,,-RA,1.12,VWS V14.01,2013-12-23 16:01:00,
2013-12-23 11:06:00,66.8,64.4,30.04,West,260,6.0,6.0,92,0.00,,-RA,1.12,VWS V14.01,2013-12-23 16:06:00,
2013-12-23 11:11:00,67.0,64.6,30.04,North,349,0.0,6.0,92,0.00,,-RA,1.12,VWS V14.01,2013-12-23 16:11:00,
2013-12-23 11:16:00,67.1,64.7,30.04,SW,234,4.0,4.0,92,0.00,,-RA,1.12,VWS V14.01,2013-12-23 16:16:00,
2013-12-23 11:21:00,67.2,64.5,30.03,West,274,1.0,7.0,91,0.00,,-RA,1.12,VWS V14.01,2013-12-23 16:21:00,
2013-12-23 11:26:00,67.4,64.4,30.03,SW,233,2.0,8.0,90,0.00,,-RA,1.12,VWS V14.01,2013-12-23 16:26:00,
2013-12-23 11:31:00,67.6,64.6,30.04,WSW,249,2.0,5.0,90,0.00,,-RA,1.12,VWS V14.01,2013-12-23 16:31:00,
2013-12-23 11:36:00,67.7,64.7,30.03,WSW,245,1.0,6.0,90,0.00,,-RA,1.12,VWS V14.01,2013-12-23 16:36:00,
2013-12-23 11:41:00,67.8,64.4,30.03,West,274,3.0,6.0,89,0.00,,-RA,1.12,VWS V14.01,2013-12-23 16:41:00,
2013-12-23 11:46:00,68.0,64.3,30.03,WSW,241,4.0,10.0,88,0.00,,-RA,1.12,VWS V14.01,2013-12-23 16:46:00,
2013-12-23 11:51:00,68.1,64.1,30.02,WSW,252,1.0,8.0,87,0.00,,-RA,1.12,VWS V14.01,2013-12-23 16:51:00,
2013-12-23 11:56:00,68.2,64.5,30.01,ESE,108,0.0,2.0,88,0.00,,OVC080,1.12,VWS V14.01,2013-12-23 16:56:00,
2013-12-23 12:06:00,68.3,64.3,30.01,WSW,254,1.0,3.0,87,0.00,,OVC080,1.12,VWS V14.01,2013-12-23 17:06:00,
2013-12-23 12:11:00,68.3,64.3,30.01,WSW,251,1.0,3.0,87,0.00,,OVC080,1.12,VWS V14.01,2013-12-23 17:11:00,
2013-12-23 12:16:00,68.2,64.2,30.01,West,278,2.0,7.0,87,0.00,,OVC080,1.12,VWS V14.01,2013-12-23 17:16:00,
2013-12-23 12:21:00,68.2,64.2,30.01,South,185,2.0,3.0,87,0.00,,OVC080,1.12,VWS V14.01,2013-12-23 17:21:00,
2013-12-23 12:26:00,68.2,64.2,30.01,WSW,247,1.0,3.0,87,0.00,,OVC080,1.12,VWS V14.01,2013-12-23 17:26:00,
2013-12-23 12:31:00,68.2,64.2,30.01,West,259,3.0,4.0,87,0.00,,OVC080,1.12,VWS V14.01,2013-12-23 17:31:00,
2013-12-23 12:36:00,68.2,64.2,30.01,WSW,244,3.0,7.0,87,0.00,,OVC080,1.12,VWS V14.01,2013-12-23 17:36:00,
2013-12-23 12:41:00,68.2,64.5,30.01,WSW,246,2.0,4.0,88,0.00,,OVC080,1.12,VWS V14.01,2013-12-23 17:41:00,
2013-12-23 12:46:00,68.1,64.4,30.00,WSW,243,2.0,4.0,88,0.00,,OVC080,1.12,VWS V14.01,2013-12-23 17:46:00,
2013-12-23 12:51:00,68.1,64.4,30.00,WSW,256,2.0,5.0,88,0.00,,OVC080,1.12,VWS V14.01,2013-12-23 17:51:00,
2013-12-23 12:56:00,68.2,64.5,30.00,West,267,1.0,6.0,88,0.00,,-RA,1.12,VWS V14.01,2013-12-23 17:56:00,
2013-12-23 13:01:00,68.2,64.5,30.01,West,278,1.0,7.0,88,0.00,,-RA,1.12,VWS V14.01,2013-12-23 18:01:00,
2013-12-23 13:06:00,68.2,64.2,30.01,SSW,207,3.0,8.0,87,0.00,,-RA,1.12,VWS V14.01,2013-12-23 18:06:00,
2013-12-23 13:16:00,68.2,64.5,30.01,West,259,1.0,12.0,88,0.01,,-RA,1.13,VWS V14.01,2013-12-23 18:16:00,
2013-12-23 13:21:00,67.9,64.5,29.99,WSW,242,2.0,4.0,89,0.02,,-RA,1.14,VWS V14.01,2013-12-23 18:21:00,
2013-12-23 13:26:00,67.4,64.4,30.00,WSW,255,0.0,2.0,90,0.02,,-RA,1.14,VWS V14.01,2013-12-23 18:26:00,
2013-12-23 13:36:00,67.1,64.4,29.99,SW,232,2.0,6.0,91,0.04,,-RA,1.16,VWS V14.01,2013-12-23 18:36:00,
2013-12-23 13:41:00,67.0,64.6,29.99,West,274,0.0,2.0,92,0.04,,-RA,1.16,VWS V14.01,2013-12-23 18:41:00,
2013-12-23 13:46:00,66.9,64.5,29.99,WSW,247,0.0,3.0,92,0.04,,-RA,1.16,VWS V14.01,2013-12-23 18:46:00,
2013-12-23 13:51:00,66.8,64.4,29.99,West,259,1.0,3.0,92,0.04,,-RA,1.16,VWS V14.01,2013-12-23 18:51:00,
2013-12-23 13:56:00,66.7,64.6,29.99,WSW,252,1.0,2.0,93,0.04,,-RA,1.16,VWS V14.01,2013-12-23 18:56:00,
2013-12-23 14:01:00,66.6,64.5,29.99,WSW,251,1.0,3.0,93,0.05,,-RA,1.17,VWS V14.01,2013-12-23 19:01:00,
2013-12-23 14:06:00,66.4,64.3,29.99,WSW,242,2.0,4.0,93,0.06,,-RA,1.18,VWS V14.01,2013-12-23 19:06:00,
2013-12-23 14:11:00,66.3,64.5,29.99,WSW,239,1.0,4.0,94,0.07,,-RA,1.19,VWS V14.01,2013-12-23 19:11:00,
2013-12-23 14:16:00,66.2,64.4,29.99,WSW,255,2.0,5.0,94,0.08,,-RA,1.20,VWS V14.01,2013-12-23 19:16:00,
2013-12-23 14:21:00,66.0,64.2,29.99,SW,226,0.0,3.0,94,0.08,,-RA,1.21,VWS V14.01,2013-12-23 19:21:00,
2013-12-23 14:26:00,66.0,64.2,29.99,West,259,1.0,4.0,94,0.08,,-RA,1.22,VWS V14.01,2013-12-23 19:26:00,
2013-12-23 14:31:00,65.9,64.4,29.99,SW,236,0.0,2.0,95,0.09,,-RA,1.23,VWS V14.01,2013-12-23 19:31:00,
2013-12-23 14:36:00,65.8,64.3,29.99,West,259,0.0,1.0,95,0.09,,-RA,1.24,VWS V14.01,2013-12-23 19:36:00,
2013-12-23 14:41:00,65.7,64.2,30.00,West,262,0.0,2.0,95,0.10,,-RA,1.26,VWS V14.01,2013-12-23 19:41:00,
2013-12-23 14:46:00,65.7,64.2,29.99,SSW,199,0.0,1.0,95,0.12,,-RA,1.28,VWS V14.01,2013-12-23 19:46:00,
2013-12-23 14:51:00,65.6,64.4,29.99,SSW,198,0.0,0.0,96,0.13,,-RA,1.29,VWS V14.01,2013-12-23 19:51:00,
2013-12-23 14:56:00,65.6,64.4,29.99,SSW,198,0.0,0.0,96,0.14,,-RA,1.30,VWS V14.01,2013-12-23 19:56:00,
2013-12-23 15:01:00,65.5,64.3,29.99,SSW,198,0.0,0.0,96,0.15,,-RA,1.31,VWS V14.01,2013-12-23 20:01:00,
2013-12-23 15:06:00,65.5,64.3,29.99,SSW,198,0.0,0.0,96,0.14,,-RA,1.31,VWS V14.01,2013-12-23 20:06:00,
2013-12-23 15:11:00,65.5,64.3,30.00,SSW,198,0.0,0.0,96,0.14,,-RA,1.32,VWS V14.01,2013-12-23 20:11:00,
2013-12-23 15:16:00,65.4,64.2,30.00,SSW,198,0.0,0.0,96,0.13,,-RA,1.32,VWS V14.01,2013-12-23 20:16:00,
2013-12-23 15:21:00,65.4,64.2,30.00,SW,217,0.0,1.0,96,0.13,,RA,1.33,VWS V14.01,2013-12-23 20:21:00,
2013-12-23 15:26:00,65.4,64.2,30.00,SW,217,0.0,1.0,96,0.12,,RA,1.33,VWS V14.01,2013-12-23 20:26:00,
2013-12-23 15:31:00,65.4,64.5,29.99,SW,217,0.0,0.0,97,0.12,,-RA,1.34,VWS V14.01,2013-12-23 20:31:00,
2013-12-23 15:36:00,65.4,64.5,30.01,NW,311,1.0,3.0,97,0.12,,-RA,1.35,VWS V14.01,2013-12-23 20:36:00,
2013-12-23 15:41:00,62.5,58.6,30.01,West,281,2.0,8.0,87,0.12,,-RA,1.36,VWS V14.01,2013-12-23 20:41:00,
2013-12-23 15:46:00,60.1,57.2,30.02,NNW,345,1.0,3.0,90,0.10,,-RA,1.36,VWS V14.01,2013-12-23 20:46:00,
2013-12-23 15:51:00,58.9,56.9,30.02,WNW,292,0.0,6.0,93,0.09,,-RA,1.37,VWS V14.01,2013-12-23 20:51:00,
2013-12-23 15:56:00,58.4,56.7,30.03,West,281,1.0,5.0,94,0.08,,-RA,1.37,VWS V14.01,2013-12-23 20:56:00,
2013-12-23 16:01:00,58.1,56.7,30.03,WNW,288,1.0,1.0,95,0.07,,-RA,1.37,VWS V14.01,2013-12-23 21:01:00,
2013-12-23 16:06:00,58.0,56.9,30.03,NNW,344,1.0,1.0,96,0.06,,OVC024,1.37,VWS V14.01,2013-12-23 21:06:00,
2013-12-23 16:11:00,57.9,56.8,30.02,WNW,300,0.0,1.0,96,0.06,,OVC024,1.37,VWS V14.01,2013-12-23 21:11:00,
2013-12-23 16:16:00,57.9,56.8,30.03,WNW,300,0.0,1.0,96,0.05,,OVC024,1.37,VWS V14.01,2013-12-23 21:16:00,
2013-12-23 16:21:00,57.9,56.8,30.03,WSW,245,0.0,1.0,96,0.05,,OVC024,1.37,VWS V14.01,2013-12-23 21:21:00,
2013-12-23 16:26:00,57.9,57.1,30.03,SW,223,1.0,1.0,97,0.04,,OVC024,1.37,VWS V14.01,2013-12-23 21:26:00,
2013-12-23 16:31:00,58.0,57.2,30.04,WSW,256,0.0,1.0,97,0.04,,OVC024,1.37,VWS V14.01,2013-12-23 21:31:00,
2013-12-23 16:36:00,58.0,57.2,30.04,WSW,256,0.0,1.0,97,0.03,,OVC024,1.37,VWS V14.01,2013-12-23 21:36:00,
2013-12-23 16:41:00,57.9,57.1,30.04,WSW,256,0.0,1.0,97,0.02,,OVC024,1.37,VWS V14.01,2013-12-23 21:41:00,
2013-12-23 16:46:00,57.8,56.7,30.04,WSW,256,0.0,1.0,96,0.01,,OVC024,1.37,VWS V14.01,2013-12-23 21:46:00,
2013-12-23 16:51:00,57.7,56.6,30.05,West,265,1.0,1.0,96,0.01,,OVC024,1.37,VWS V14.01,2013-12-23 21:51:00,
2013-12-23 16:56:00,57.6,56.5,30.04,WNW,292,0.0,1.0,96,0.01,,-RA,1.38,VWS V14.01,2013-12-23 21:56:00,
2013-12-23 17:01:00,57.6,56.5,30.05,NW,323,0.0,1.0,96,0.01,,-RA,1.38,VWS V14.01,2013-12-23 22:01:00,
2013-12-23 17:11:00,57.5,56.4,30.04,NW,311,0.0,0.0,96,0.01,,-RA,1.38,VWS V14.01,2013-12-23 22:11:00,
2013-12-23 17:16:00,57.5,56.4,30.05,West,259,0.0,2.0,96,0.01,,-RA,1.38,VWS V14.01,2013-12-23 22:16:00,
2013-12-23 17:21:00,57.5,56.7,30.04,West,259,0.0,0.0,97,0.01,,-RA,1.38,VWS V14.01,2013-12-23 22:21:00,
2013-12-23 17:26:00,57.4,56.6,30.05,West,259,0.0,1.0,97,0.01,,RA,1.38,VWS V14.01,2013-12-23 22:26:00,
2013-12-23 17:31:00,57.4,56.6,30.05,West,276,0.0,4.0,97,0.01,,RA,1.38,VWS V14.01,2013-12-23 22:31:00,
2013-12-23 17:36:00,57.3,56.5,30.05,WNW,288,0.0,1.0,97,0.01,,-RA,1.38,VWS V14.01,2013-12-23 22:36:00,
2013-12-23 17:41:00,57.3,56.5,30.05,West,281,0.0,1.0,97,0.02,,-RA,1.39,VWS V14.01,2013-12-23 22:41:00,
2013-12-23 17:46:00,57.1,56.0,30.06,WNW,296,2.0,4.0,96,0.02,,-RA,1.39,VWS V14.01,2013-12-23 22:46:00,
2013-12-23 17:51:00,56.3,54.9,30.07,WSW,256,0.0,3.0,95,0.03,,-RA,1.40,VWS V14.01,2013-12-23 22:51:00,
2013-12-23 17:56:00,55.5,53.8,30.08,North,11,0.0,3.0,94,0.03,,-RA,1.40,VWS V14.01,2013-12-23 22:56:00,
2013-12-23 18:01:00,54.8,53.1,30.08,North,3,0.0,2.0,94,0.02,,-RA,1.40,VWS V14.01,2013-12-23 23:01:00,
2013-12-23 18:06:00,54.2,52.5,30.08,NW,312,0.0,1.0,94,0.03,,-RA,1.41,VWS V14.01,2013-12-23 23:06:00,
2013-12-23 18:11:00,53.6,51.9,30.08,WNW,302,1.0,2.0,94,0.03,,-RA,1.41,VWS V14.01,2013-12-23 23:11:00,
2013-12-23 18:16:00,53.2,51.5,30.09,WNW,302,2.0,3.0,94,0.03,,RA,1.41,VWS V14.01,2013-12-23 23:16:00,
2013-12-23 18:21:00,52.9,51.2,30.10,WNW,298,2.0,3.0,94,0.03,,RA,1.41,VWS V14.01,2013-12-23 23:21:00,
2013-12-23 18:26:00,52.7,51.0,30.10,WNW,296,1.0,2.0,94,0.03,,RA,1.41,VWS V14.01,2013-12-23 23:26:00,
2013-12-23 18:31:00,52.5,50.8,30.10,NW,307,2.0,4.0,94,0.03,,RA,1.41,VWS V14.01,2013-12-23 23:31:00,
2013-12-23 18:36:00,52.0,49.8,30.09,NW,304,1.0,4.0,92,0.03,,RA,1.41,VWS V14.01,2013-12-23 23:36:00,
2013-12-23 18:41:00,51.6,49.7,30.10,WSW,237,0.0,2.0,93,0.03,,RA,1.41,VWS V14.01,2013-12-23 23:41:00,
2013-12-23 18:46:00,51.4,49.5,30.10,West,273,0.0,2.0,93,0.02,,RA,1.41,VWS V14.01,2013-12-23 23:46:00,
2013-12-23 18:51:00,51.2,49.2,30.10,NW,318,0.0,1.0,93,0.02,,RA,1.41,VWS V14.01,2013-12-23 23:51:00,
2013-12-23 18:56:00,51.1,49.4,30.10,North,356,0.0,2.0,94,0.01,,-RA,1.41,VWS V14.01,2013-12-23 23:56:00,
2013-12-23 19:01:00,51.0,49.3,30.10,WSW,252,0.0,1.0,94,0.01,,-RA,1.41,VWS V14.01,2013-12-24 00:01:00,
2013-12-23 19:06:00,50.9,49.2,30.10,WSW,252,0.0,1.0,94,0.01,,-RA,1.41,VWS V14.01,2013-12-24 00:06:00,
2013-12-23 19:11:00,50.9,49.2,30.10,WSW,243,0.0,1.0,94,0.00,,-RA,1.41,VWS V14.01,2013-12-24 00:11:00,
2013-12-23 19:16:00,50.9,49.2,30.10,West,265,0.0,1.0,94,0.00,,-RA,1.41,VWS V14.01,2013-12-24 00:16:00,
2013-12-23 19:21:00,50.9,49.2,30.10,West,265,0.0,0.0,94,0.00,,-RA,1.41,VWS V14.01,2013-12-24 00:21:00,
2013-12-23 19:26:00,50.9,49.2,30.10,West,265,0.0,1.0,94,0.00,,-RA,1.41,VWS V14.01,2013-12-24 00:26:00,
2013-12-23 19:31:00,50.8,49.1,30.10,West,265,0.0,1.0,94,0.00,,-RA,1.41,VWS V14.01,2013-12-24 00:31:00,
2013-12-23 19:36:00,50.8,49.1,30.11,West,265,0.0,0.0,94,0.00,,-RA,1.41,VWS V14.01,2013-12-24 00:36:00,
2013-12-23 19:41:00,50.8,49.1,30.11,West,263,0.0,1.0,94,0.00,,-RA,1.41,VWS V14.01,2013-12-24 00:41:00,
2013-12-23 19:46:00,50.8,49.1,30.11,West,263,0.0,0.0,94,0.01,,-RA,1.42,VWS V14.01,2013-12-24 00:46:00,
2013-12-23 19:51:00,50.7,49.3,30.11,West,263,0.0,0.0,95,0.02,,-RA,1.43,VWS V14.01,2013-12-24 00:51:00,
2013-12-23 19:56:00,50.7,49.3,30.11,West,263,0.0,0.0,95,0.02,,-RA,1.43,VWS V14.01,2013-12-24 00:56:00,
2013-12-23 20:01:00,50.6,49.2,30.12,West,263,0.0,1.0,95,0.02,,-RA,1.43,VWS V14.01,2013-12-24 01:01:00,
2013-12-23 20:06:00,50.4,49.0,30.12,West,264,0.0,1.0,95,0.02,,-RA,1.43,VWS V14.01,2013-12-24 01:06:00,
2013-12-23 20:11:00,50.4,49.0,30.11,West,264,0.0,0.0,95,0.02,,-RA,1.43,VWS V14.01,2013-12-24 01:11:00,
2013-12-23 20:16:00,50.3,48.9,30.11,West,266,0.0,1.0,95,0.02,,-RA,1.43,VWS V14.01,2013-12-24 01:16:00,
2013-12-23 20:21:00,50.1,48.7,30.11,West,266,0.0,0.0,95,0.03,,-RA,1.44,VWS V14.01,2013-12-24 01:21:00,
2013-12-23 20:26:00,50.1,49.0,30.11,WSW,239,0.0,1.0,96,0.05,,-RA,1.46,VWS V14.01,2013-12-24 01:26:00,
2013-12-23 20:31:00,50.0,48.6,30.11,WSW,240,0.0,1.0,95,0.06,,-RA,1.47,VWS V14.01,2013-12-24 01:31:00,
2013-12-23 20:36:00,49.7,48.3,30.11,WSW,240,0.0,1.0,95,0.06,,-RA,1.47,VWS V14.01,2013-12-24 01:36:00,
2013-12-23 20:41:00,49.5,48.1,30.11,WSW,240,0.0,1.0,95,0.07,,-RA,1.48,VWS V14.01,2013-12-24 01:41:00,
2013-12-23 20:46:00,49.5,48.1,30.11,WSW,240,0.0,0.0,95,0.07,,-RA,1.48,VWS V14.01,2013-12-24 01:46:00,
2013-12-23 20:51:00,49.4,48.0,30.12,WSW,240,0.0,0.0,95,0.06,,-RA,1.48,VWS V14.01,2013-12-24 01:51:00,
2013-12-23 20:56:00,49.5,48.4,30.12,WSW,240,0.0,0.0,96,0.05,,OVC055,1.48,VWS V14.01,2013-12-24 01:56:00,
2013-12-23 21:01:00,49.5,48.4,30.12,WSW,240,0.0,0.0,96,0.05,,OVC055,1.48,VWS V14.01,2013-12-24 02:01:00,
2013-12-23 21:06:00,49.4,48.3,30.12,WSW,240,0.0,0.0,96,0.05,,OVC055,1.48,VWS V14.01,2013-12-24 02:06:00,
2013-12-23 21:11:00,49.3,48.2,30.12,WSW,240,0.0,0.0,96,0.05,,OVC055,1.48,VWS V14.01,2013-12-24 02:11:00,
2013-12-23 21:16:00,49.3,48.2,30.12,WSW,240,0.0,0.0,96,0.05,,OVC055,1.48,VWS V14.01,2013-12-24 02:16:00,
2013-12-23 21:21:00,49.3,48.2,30.12,WSW,240,0.0,0.0,96,0.05,,OVC055,1.48,VWS V14.01,2013-12-24 02:21:00,
2013-12-23 21:26:00,49.4,48.3,30.12,WSW,249,1.0,2.0,96,0.04,,OVC055,1.48,VWS V14.01,2013-12-24 02:26:00,
2013-12-23 21:31:00,49.5,48.1,30.12,WSW,248,0.0,1.0,95,0.02,,OVC055,1.48,VWS V14.01,2013-12-24 02:31:00,
2013-12-23 21:36:00,49.6,48.5,30.12,WSW,248,0.0,0.0,96,0.01,,OVC055,1.48,VWS V14.01,2013-12-24 02:36:00,
2013-12-23 21:41:00,49.6,48.5,30.12,WSW,248,0.0,1.0,96,0.01,,OVC055,1.48,VWS V14.01,2013-12-24 02:41:00,
2013-12-23 21:46:00,49.4,48.3,30.12,WSW,248,0.0,1.0,96,0.00,,OVC055,1.48,VWS V14.01,2013-12-24 02:46:00,
2013-12-23 21:51:00,49.3,48.2,30.12,WSW,248,0.0,0.0,96,0.00,,OVC055,1.48,VWS V14.01,2013-12-24 02:51:00,
2013-12-23 21:56:00,49.2,48.1,30.13,South,187,0.0,1.0,96,0.00,,OVC070,1.48,VWS V14.01,2013-12-24 02:56:00,
2013-12-23 22:01:00,49.3,47.9,30.13,WSW,245,0.0,2.0,95,0.01,,OVC070,1.49,VWS V14.01,2013-12-24 03:01:00,
2013-12-23 22:06:00,49.4,48.0,30.12,WSW,245,0.0,1.0,95,0.02,,OVC070,1.50,VWS V14.01,2013-12-24 03:06:00,
2013-12-23 22:11:00,49.3,47.9,30.12,WSW,248,0.0,1.0,95,0.02,,OVC070,1.50,VWS V14.01,2013-12-24 03:11:00,
2013-12-23 22:16:00,49.0,47.6,30.13,SSW,213,0.0,1.0,95,0.03,,OVC070,1.51,VWS V14.01,2013-12-24 03:16:00,
2013-12-23 22:21:00,48.9,47.5,30.13,SSW,213,0.0,0.0,95,0.03,,OVC070,1.51,VWS V14.01,2013-12-24 03:21:00,
2013-12-23 22:26:00,48.7,47.3,30.13,WSW,250,0.0,2.0,95,0.03,,OVC070,1.51,VWS V14.01,2013-12-24 03:26:00,
2013-12-23 22:31:00,48.7,47.3,30.13,SE,141,0.0,1.0,95,0.03,,OVC070,1.51,VWS V14.01,2013-12-24 03:31:00,
2013-12-23 22:36:00,48.7,47.6,30.13,SE,141,0.0,0.0,96,0.03,,OVC070,1.51,VWS V14.01,2013-12-24 03:36:00,
2013-12-23 22:41:00,48.7,47.6,30.13,SE,141,0.0,0.0,96,0.03,,OVC070,1.51,VWS V14.01,2013-12-24 03:41:00,
2013-12-23 22:46:00,48.6,47.5,30.14,WSW,245,0.0,1.0,96,0.03,,OVC070,1.51,VWS V14.01,2013-12-24 03:46:00,
2013-12-23 22:51:00,48.5,47.4,30.14,WSW,245,0.0,1.0,96,0.03,,OVC070,1.51,VWS V14.01,2013-12-24 03:51:00,
2013-12-23 22:56:00,48.5,47.4,30.12,WSW,245,0.0,0.0,96,0.03,,-RA,1.51,VWS V14.01,2013-12-24 03:56:00,
2013-12-23 23:01:00,48.5,47.4,30.12,WSW,245,0.0,1.0,96,0.03,,-RA,1.51,VWS V14.01,2013-12-24 04:01:00,
2013-12-23 23:06:00,48.5,47.4,30.14,WSW,245,0.0,1.0,96,0.03,,-RA,1.52,VWS V14.01,2013-12-24 04:06:00,
2013-12-23 23:11:00,48.4,47.3,30.14,WSW,245,0.0,1.0,96,0.02,,-RA,1.52,VWS V14.01,2013-12-24 04:11:00,
2013-12-23 23:16:00,48.0,46.6,30.13,WSW,245,0.0,0.0,95,0.02,,-RA,1.52,VWS V14.01,2013-12-24 04:16:00,
2013-12-23 23:21:00,47.7,46.1,30.13,WSW,245,0.0,0.0,94,0.01,,-RA,1.52,VWS V14.01,2013-12-24 04:21:00,
2013-12-23 23:26:00,47.5,45.9,30.13,WSW,245,0.0,0.0,94,0.01,,-RA,1.52,VWS V14.01,2013-12-24 04:26:00,
2013-12-23 23:31:00,47.3,45.4,30.14,WSW,254,0.0,1.0,93,0.01,,-RA,1.52,VWS V14.01,2013-12-24 04:31:00,
2013-12-23 23:36:00,47.2,45.3,30.13,WSW,254,0.0,1.0,93,0.01,,-RA,1.52,VWS V14.01,2013-12-24 04:36:00,
2013-12-23 23:41:00,47.1,45.2,30.13,WSW,254,0.0,1.0,93,0.01,,-RA,1.52,VWS V14.01,2013-12-24 04:41:00,
2013-12-23 23:46:00,47.0,45.1,30.12,WSW,254,0.0,1.0,93,0.01,,-RA,1.52,VWS V14.01,2013-12-24 04:46:00,
2013-12-23 23:51:00,46.9,45.3,30.12,WSW,254,0.0,0.0,94,0.01,,-RA,1.52,VWS V14.01,2013-12-24 04:51:00,
2013-12-23 23:56:00,46.9,45.0,30.13,WSW,255,0.0,1.0,93,0.01,,BKN060,1.52,VWS V14.01,2013-12-24 04:56:00,